| time (UTC) | temp F | wind direction | speed knots | gust knots | rain 1hr in | rain 24hr in | rain mn in | humidity % | barometer mb |
| 20260509134501 | 57 | 360 | 0.0 | 0.0 | 0.00 | 0.00 | 0.00 | 96 | 1005.6 |
| 20260509133106 | 55 | 189 | 0.0 | 0.0 | 0.00 | 0.00 | 0.00 | 97 | 1005.9 |
| 20260509131559 | 55 | 250 | 0.0 | 0.0 | 0.00 | 0.00 | 0.00 | 97 | 1006.1 |
| 20260509130056 | 55 | 249 | 0.0 | 0.0 | 0.00 | 0.00 | 0.00 | 97 | 1006.1 |
| 20260509124556 | 53 | 180 | 0.0 | 0.0 | 0.00 | 0.00 | 0.00 | 97 | 1005.7 |
| 20260509123056 | 53 | 181 | 0.0 | 0.0 | 0.00 | 0.00 | 0.00 | 97 | 1005.7 |
| 20260509121556 | 52 | 216 | 0.0 | 0.0 | 0.00 | 0.00 | 0.00 | 97 | 1005.6 |
| 20260509120044 | 52 | 360 | 0.0 | 0.0 | 0.00 | 0.00 | 0.00 | 97 | 1005.5 |
| 20260509114556 | 52 | 188 | 0.0 | 0.0 | 0.00 | 0.00 | 0.00 | 97 | 1005.6 |
| 20260509113041 | 52 | 180 | 0.0 | 0.0 | 0.00 | 0.00 | 0.00 | 97 | 1005.6 |
| 20260509111540 | 52 | 184 | 0.0 | 0.0 | 0.00 | 0.00 | 0.00 | 97 | 1005.4 |
| 20260509110014 | 52 | 360 | 0.0 | 0.0 | 0.00 | 0.00 | 0.00 | 97 | 1005.3 |
| 20260509104510 | 52 | 244 | 0.0 | 0.0 | 0.00 | 0.00 | 0.00 | 97 | 1005.5 |
| 20260509103006 | 52 | 230 | 0.0 | 0.0 | 0.00 | 0.00 | 0.00 | 97 | 1005.5 |
| 20260509101506 | 50 | 220 | 0.0 | 0.0 | 0.00 | 0.00 | 0.00 | 97 | 1005.5 |
| 20260509100005 | 47 | 360 | 0.0 | 0.0 | 0.00 | 0.00 | 0.00 | 97 | 1005.7 |
| 20260509094503 | 46 | 360 | 0.0 | 0.0 | 0.00 | 0.05 | 0.00 | 96 | 1005.8 |
| 20260509093032 | 45 | 360 | 0.0 | 0.0 | 0.00 | 0.05 | 0.00 | 96 | 1005.7 |
| 20260509091532 | 45 | 360 | 0.0 | 0.0 | 0.00 | 0.05 | 0.00 | 96 | 1005.7 |
| 20260509090051 | 46 | 360 | 0.0 | 0.0 | 0.00 | 0.05 | 0.00 | 96 | 1005.7 |
| 20260509084529 | 46 | 360 | 0.0 | 0.0 | 0.00 | 0.05 | 0.00 | 96 | 1005.8 |
| 20260509083043 | 45 | 360 | 0.0 | 0.0 | 0.00 | 0.05 | 0.00 | 95 | 1005.9 |
| 20260509081529 | 45 | 360 | 0.0 | 0.0 | 0.00 | 0.05 | 0.00 | 95 | 1006.0 |
| 20260509080024 | 45 | 360 | 0.0 | 0.0 | 0.00 | 0.05 | 0.00 | 95 | 1006.0 |
| 20260509074531 | 47 | 360 | 0.0 | 0.0 | 0.00 | 0.05 | 0.00 | 95 | 1005.9 |
| 20260509073021 | 47 | 360 | 0.0 | 0.0 | 0.00 | 0.05 | 0.00 | 96 | 1005.8 |
| 20260509071522 | 48 | 360 | 0.0 | 0.0 | 0.00 | 0.05 | 0.00 | 95 | 1005.9 |
| 20260509070050 | 48 | 360 | 0.0 | 0.0 | 0.00 | 0.05 | 0.00 | 94 | 1006.0 |
| 20260509064545 | 49 | 360 | 0.0 | 0.0 | 0.00 | 0.05 | 0.00 | 95 | 1006.0 |
| 20260509063046 | 48 | 360 | 0.0 | 0.0 | 0.00 | 0.05 | 0.00 | 94 | 1006.3 |
| 20260509061538 | 49 | 360 | 0.0 | 0.0 | 0.00 | 0.05 | 0.00 | 94 | 1006.4 |
| 20260509060036 | 49 | 360 | 0.0 | 0.0 | 0.00 | 0.05 | 0.00 | 94 | 1006.5 |
| 20260509054535 | 50 | 360 | 0.0 | 0.0 | 0.00 | 0.05 | 0.00 | 94 | 1006.8 |
| 20260509053039 | 50 | 360 | 0.0 | 0.0 | 0.00 | 0.05 | 0.00 | 93 | 1006.6 |
| 20260509051529 | 51 | 360 | 0.0 | 0.0 | 0.00 | 0.05 | 0.00 | 93 | 1006.5 |
| 20260509050042 | 52 | 360 | 0.0 | 0.0 | 0.00 | 0.05 | 0.00 | 93 | 1006.7 |
| 20260509044522 | 52 | 360 | 0.0 | 0.0 | 0.00 | 0.05 | 0.05 | 93 | 1006.8 |
| 20260509043032 | 52 | 360 | 0.0 | 0.0 | 0.00 | 0.05 | 0.05 | 93 | 1007.0 |
| 20260509041519 | 52 | 360 | 0.0 | 0.0 | 0.00 | 0.05 | 0.05 | 92 | 1007.1 |
| 20260509040018 | 53 | 360 | 0.0 | 0.0 | 0.00 | 0.05 | 0.05 | 92 | 1007.2 |
| 20260509034518 | 53 | 360 | 0.0 | 0.0 | 0.00 | 0.05 | 0.05 | 92 | 1007.2 |
| 20260509033020 | 53 | 193 | 0.0 | 0.0 | 0.00 | 0.05 | 0.05 | 91 | 1007.3 |
| 20260509031515 | 54 | 360 | 0.0 | 0.0 | 0.00 | 0.05 | 0.05 | 91 | 1007.4 |
| 20260509030020 | 54 | 360 | 0.0 | 0.0 | 0.00 | 0.05 | 0.05 | 90 | 1007.5 |
| 20260509024514 | 55 | 360 | 0.0 | 0.0 | 0.00 | 0.05 | 0.05 | 90 | 1007.5 |
| 20260509023012 | 55 | 177 | 0.0 | 0.0 | 0.00 | 0.05 | 0.05 | 89 | 1007.5 |
| 20260509021512 | 56 | 180 | 0.0 | 0.0 | 0.00 | 0.05 | 0.05 | 87 | 1007.1 |
| 20260509020011 | 56 | 179 | 0.0 | 0.0 | 0.00 | 0.05 | 0.05 | 86 | 1007.1 |
| 20260509014511 | 57 | 178 | 0.0 | 0.0 | 0.00 | 0.05 | 0.05 | 85 | 1007.0 |
| 20260509013046 | 57 | 185 | 0.0 | 0.0 | 0.00 | 0.05 | 0.05 | 83 | 1007.0 |
| 20260509011540 | 58 | 176 | 0.0 | 0.0 | 0.00 | 0.05 | 0.05 | 81 | 1007.1 |
| 20260509010037 | 59 | 179 | 0.0 | 0.0 | 0.00 | 0.05 | 0.05 | 80 | 1007.0 |
| 20260509004548 | 59 | 177 | 0.0 | 0.0 | 0.00 | 0.05 | 0.05 | 78 | 1006.9 |
| 20260509003035 | 60 | 173 | 0.0 | 0.0 | 0.00 | 0.05 | 0.05 | 75 | 1006.9 |
| 20260509001535 | 61 | 184 | 0.0 | 0.0 | 0.00 | 0.05 | 0.05 | 72 | 1006.9 |
| 20260509000006 | 61 | 360 | 0.0 | 0.0 | 0.00 | 0.05 | 0.05 | 73 | 1006.9 |
| 20260508234504 | 61 | 242 | 0.0 | 0.0 | 0.00 | 0.05 | 0.05 | 74 | 1007.0 |
| 20260508233103 | 61 | 202 | 0.0 | 0.0 | 0.00 | 0.05 | 0.05 | 76 | 1007.1 |
| 20260508231531 | 62 | 179 | 0.0 | 0.0 | 0.00 | 0.05 | 0.05 | 73 | 1007.2 |
| 20260508230032 | 63 | 173 | 0.0 | 0.0 | 0.00 | 0.05 | 0.05 | 69 | 1007.3 |
| 20260508230030 | 63 | 163 | 0.0 | 0.0 | 0.00 | 0.05 | 0.05 | 69 | 1007.3 |
| 20260508224504 | 64 | 178 | 0.0 | 0.0 | 0.00 | 0.05 | 0.05 | 68 | 1007.2 |
| 20260508223102 | 64 | 227 | 0.0 | 0.0 | 0.00 | 0.05 | 0.05 | 66 | 1007.2 |
| 20260508221609 | 65 | 250 | 0.0 | 0.0 | 0.00 | 0.05 | 0.05 | 66 | 1007.2 |
| 20260508220055 | 65 | 248 | 0.0 | 0.0 | 0.00 | 0.05 | 0.05 | 66 | 1007.2 |
| 20260508214553 | 65 | 360 | 0.0 | 0.0 | 0.00 | 0.05 | 0.05 | 67 | 1007.3 |
| 20260508213052 | 65 | 360 | 0.0 | 0.0 | 0.00 | 0.05 | 0.05 | 68 | 1007.5 |
| 20260508211550 | 65 | 299 | 0.0 | 0.0 | 0.00 | 0.05 | 0.05 | 70 | 1007.5 |
| 20260508210046 | 64 | 256 | 0.0 | 0.0 | 0.00 | 0.05 | 0.05 | 74 | 1007.5 |
| 20260508204544 | 63 | 249 | 0.0 | 0.0 | 0.00 | 0.05 | 0.05 | 73 | 1007.7 |
| 20260508203043 | 63 | 255 | 0.0 | 0.0 | 0.00 | 0.05 | 0.05 | 73 | 1007.8 |
| 20260508201541 | 62 | 261 | 0.0 | 0.0 | 0.00 | 0.05 | 0.05 | 75 | 1008.0 |
| 20260508200045 | 62 | 257 | 0.0 | 0.0 | 0.00 | 0.05 | 0.05 | 75 | 1008.4 |
| 20260508194534 | 62 | 254 | 0.0 | 0.0 | 0.00 | 0.05 | 0.05 | 74 | 1008.6 |
| 20260508193046 | 62 | 248 | 0.0 | 0.0 | 0.00 | 0.05 | 0.05 | 73 | 1008.6 |
| 20260508191505 | 62 | 244 | 0.0 | 0.0 | 0.00 | 0.05 | 0.05 | 73 | 1008.7 |
| 20260508190002 | 62 | 240 | 0.0 | 0.0 | 0.00 | 0.05 | 0.05 | 73 | 1008.7 |
| 20260508184600 | 63 | 249 | 0.0 | 0.0 | 0.00 | 0.05 | 0.05 | 70 | 1008.8 |
| 20260508183137 | 63 | 259 | 0.0 | 0.0 | 0.00 | 0.05 | 0.05 | 74 | 1009.0 |
| 20260508181612 | 62 | 244 | 0.0 | 0.0 | 0.00 | 0.05 | 0.05 | 72 | 1009.3 |
| 20260508180055 | 63 | 173 | 0.0 | 0.0 | 0.00 | 0.05 | 0.05 | 72 | 1009.3 |
| 20260508174526 | 62 | 360 | 0.0 | 0.0 | 0.00 | 0.05 | 0.05 | 71 | 1009.3 |
| 20260508173026 | 62 | 243 | 0.0 | 0.0 | 0.00 | 0.05 | 0.05 | 71 | 1009.6 |
| 20260508171531 | 62 | 360 | 0.0 | 0.0 | 0.00 | 0.05 | 0.05 | 71 | 1009.6 |
| 20260508170018 | 63 | 291 | 0.0 | 0.0 | 0.00 | 0.05 | 0.05 | 70 | 1009.8 |
| 20260508164521 | 64 | 360 | 0.0 | 0.0 | 0.00 | 0.05 | 0.05 | 69 | 1010.1 |
| 20260508163014 | 64 | 252 | 0.0 | 0.0 | 0.00 | 0.05 | 0.05 | 71 | 1010.3 |
| 20260508161514 | 64 | 360 | 0.0 | 0.0 | 0.00 | 0.05 | 0.05 | 71 | 1010.3 |
| 20260508160007 | 63 | 245 | 0.0 | 0.0 | 0.00 | 0.05 | 0.05 | 74 | 1010.5 |
| 20260508154504 | 61 | 228 | 0.0 | 0.0 | 0.00 | 0.05 | 0.05 | 74 | 1010.5 |
| 20260508153001 | 61 | 180 | 0.0 | 0.0 | 0.00 | 0.05 | 0.05 | 75 | 1010.8 |
| 20260508151556 | 60 | 360 | 0.0 | 0.0 | 0.00 | 0.05 | 0.05 | 75 | 1010.8 |
| 20260508150121 | 59 | 185 | 0.0 | 0.0 | 0.00 | 0.05 | 0.05 | 78 | 1010.8 |
| 20260508144601 | 58 | 225 | 0.0 | 0.0 | 0.00 | 0.05 | 0.05 | 79 | 1010.9 |
| 20260508143051 | 58 | 228 | 0.0 | 0.0 | 0.00 | 0.05 | 0.05 | 81 | 1011.1 |
| 20260508141554 | 57 | 174 | 0.0 | 0.0 | 0.00 | 0.05 | 0.05 | 83 | 1011.2 |
| 20260508140044 | 55 | 360 | 0.0 | 0.0 | 0.00 | 0.05 | 0.05 | 86 | 1011.3 |